Weather History for Scottsbluff, NE

Change the Weather History Date:

Thursday, May 31, 2012

  Actual Average Record
Temperature  
Mean Temperature 63 °F 62 °F  
Max Temperature 76 °F 76 °F 93 °F (1940)
Min Temperature 50 °F 48 °F 32 °F (1917)
Degree Days  
Heating Degree Days 2 4  
Month to date heating degree days 164 263  
Since 1 July heating degree days 5652 6555  
Cooling Degree Days 0 2  
Month to date cooling degree days 41 21  
Year to date cooling degree days 51 23  
Growing Degree Days 13 (Base 50)    
Moisture  
Dew Point 37 °F    
Average Humidity 51    
Maximum Humidity 83    
Minimum Humidity 19    
Precipitation  
Precipitation 0.04 in 0.10 in 2.42 in (1918)
Month to date precipitation 0.35 2.48  
Year to date precipitation 2.18 6.32  
Snow  
Snow 0.00 in 0.00 in 2.00 in (1917)
Month to date snowfall 0.0 0.5  
Since 1 July snowfall 20.4 42.1  
Snow Depth 0.00 in    
Sea Level Pressure  
Sea Level Pressure 30.00 in    
Wind  
Wind Speed 10 mph (NNW)    
Max Wind Speed 23 mph    
Max Gust Speed 30 mph    
Visibility 10 miles    
Events Rain    
T = Trace of Precipitation, MM = Missing Value Source: NWS Daily Summary

Daily Weather History Graph

Daily Weather History Graph

Search for Another Location

Airport:

Trip Planner

Search our weather history database for the weather conditions in past years. The results will help you decide how hot, cold, wet, or windy it might be!

Date:

Astronomy

May. 31, 2012 Rise Set
Actual Time 5:21 AM MDT 8:22 PM MDT
Civil Twilight 4:48 AM MDT 8:56 PM MDT
Nautical Twilight 4:05 AM MDT 9:39 PM MDT
Astronomical Twilight 3:15 AM MDT 10:29 PM MDT
Moon 4:12 PM MDT (5/31) 2:25 AM MDT (5/31)
Length of Visible Light 16h 07m
Length of Day
15h 00m
Waxing Gibbous, 81% of the Moon is Illuminated
May 31
Waxing Gibbous
Jun 4
Full
Jun 11
Last Quarter
Jun 19
New
Jun 26
First Quarter

Hourly Weather History & Observations

Time (MDT) Temp. Dew Point Humidity Pressure Visibility Wind Dir Wind Speed Gust Speed Precip Events Conditions
12:53 AM 54.0 °F 39.9 °F 59% 30.01 in 10.0 mi East 3.5 mph - N/A   Scattered Clouds
1:53 AM 53.1 °F 39.9 °F 61% 30.02 in 10.0 mi Calm Calm - 0.00 in Rain Light Rain
2:53 AM 52.0 °F 41.0 °F 66% 30.04 in 10.0 mi North 3.5 mph - 0.00 in   Mostly Cloudy
3:53 AM 53.1 °F 39.9 °F 61% 30.05 in 10.0 mi Calm Calm - 0.00 in Rain Light Rain
4:53 AM 50.0 °F 45.0 °F 83% 30.06 in 10.0 mi WNW 5.8 mph - 0.04 in   Overcast
5:53 AM 51.1 °F 45.0 °F 80% 30.06 in 10.0 mi WNW 13.8 mph - N/A   Overcast
6:53 AM 51.1 °F 46.9 °F 86% 30.08 in 10.0 mi WNW 10.4 mph - 0.00 in   Overcast
7:53 AM 55.0 °F 48.0 °F 77% 30.08 in 10.0 mi WNW 11.5 mph - N/A   Mostly Cloudy
8:53 AM 60.1 °F 46.0 °F 60% 30.07 in 10.0 mi WNW 13.8 mph - N/A   Clear
9:53 AM 64.0 °F 39.9 °F 41% 30.06 in 10.0 mi WNW 12.7 mph - N/A   Clear
10:53 AM 66.9 °F 37.0 °F 33% 30.04 in 10.0 mi NW 13.8 mph 23.0 mph N/A   Partly Cloudy
11:53 AM 69.8 °F 33.8 °F 27% 30.11 in 10.0 mi NW 12.7 mph 29.9 mph N/A   Partly Cloudy
12:53 PM 71.1 °F 33.1 °F 25% 30.01 in 10.0 mi NW 12.7 mph 25.3 mph N/A   Scattered Clouds
1:53 PM 73.0 °F 30.9 °F 21% 29.99 in 10.0 mi NNW 13.8 mph 24.2 mph N/A   Scattered Clouds
2:53 PM 73.9 °F 28.9 °F 19% 29.96 in 10.0 mi North 11.5 mph 29.9 mph N/A   Partly Cloudy
3:53 PM 73.9 °F 28.0 °F 18% 29.94 in 10.0 mi NNW 5.8 mph 18.4 mph N/A   Clear
4:53 PM 73.9 °F 28.0 °F 18% 29.93 in 10.0 mi North 13.8 mph 20.7 mph N/A   Clear
5:53 PM 73.0 °F 28.0 °F 19% 29.93 in 10.0 mi North 11.5 mph - N/A   Clear
6:53 PM 72.0 °F 28.9 °F 20% 29.94 in 10.0 mi NNE 8.1 mph - N/A   Clear
7:53 PM 68.0 °F 32.0 °F 26% 29.93 in 10.0 mi East 6.9 mph - N/A   Clear
8:53 PM 62.1 °F 32.0 °F 32% 29.94 in 10.0 mi East 3.5 mph - N/A   Clear
9:53 PM 62.1 °F 37.0 °F 39% 29.93 in 10.0 mi SE 13.8 mph - N/A   Clear
10:53 PM 61.0 °F 36.0 °F 39% 29.94 in 10.0 mi SE 11.5 mph - N/A   Overcast
11:53 PM 60.1 °F 37.0 °F 42% 29.91 in 10.0 mi SSE 8.1 mph - N/A   Mostly Cloudy